Hurricane Symbol View the latest observations near Atlantic Potential Tropical Cyclone One.

Station NTKM3 - 8449130 - Nantucket Island, MA Image indicating link to RSS feed of recent meteorological observations for station NTKM3


Conditions at NTKM3 as of
(10:00 am EDT)
1400 GMT on 06/18/2024:
     

Click on the graph icon in the table below to see a time series plot of the last five days of that observation.

5-day plot - Wind Direction Wind Direction (WDIR): SW ( 220 deg true )
5-day plot - Wind Speed Wind Speed (WSPD): 8.9 kts
5-day plot - Wind Gust Wind Gust (GST): 17.1 kts
5-day plot - Atmospheric Pressure Atmospheric Pressure (PRES):30.27 in
5-day plot - Pressure Tendency Pressure Tendency (PTDY):+0.02 in ( Rising )
5-day plot - Air Temperature Air Temperature (ATMP): 69.8 °F
5-day plot - Water Temperature Water Temperature (WTMP): 69.1 °F
5-day plot - Wind Speed at 10 Meters Wind Speed at 10 meters (WSPD10M): 9.7 kts
5-day plot - Wind Speed at 20 Meters Wind Speed at 20 meters (WSPD20M): 9.7 kts
5-day plot -  Wind Speed, Wind Gust and Atmospheric Pressure Combined plot of Wind Speed, Gust, and Air Pressure
NOS Water Level Observation Network Water Level
Previous observations
TIME
(EDT)
5-day plot - Wind Direction
WDIR
 
5-day plot - Wind Speed
WSPD
kts
5-day plot - Wind Gust
GST
kts
5-day plot - Wave Height
WVHT
ft
5-day plot - Dominant Wave Period
DPD
sec
5-day plot - Average Wave Period
APD
sec
5-day plot - Mean Wave Direction
MWD
 
5-day plot - Atmospheric Pressure
PRES
in
5-day plot - Pressure Tendency
PTDY
in
5-day plot - Air Temperature
ATMP
°F
5-day plot - Water Temperature
WTMP
°F
5-day plot - Dew Point
DEWP
°F
5-day plot - Salinity
SAL
psu
5-day plot - Visibility
VIS
nmi
5-day plot - Tide (above MLLW)
TIDE
ft
2024-06-18 09:54 am SW 12.0 18.1----30.27- 69.6 69.1----
2024-06-18 09:48 am SW 8.9 20.0----30.27- 69.8 69.1----
2024-06-18 09:42 am SW 11.1 15.0----30.28- 70.5 68.9----
2024-06-18 09:36 am SW 8.9 17.1----30.27- 70.5 68.9----
2024-06-18 09:30 am SW 9.9 15.9----30.28- 70.0 68.9----
2024-06-18 09:24 am SW 9.9 18.1----30.27- 69.8 68.9----
2024-06-18 09:18 am SW 8.9 15.9----30.27- 70.0 68.9----
2024-06-18 09:12 am SW 8.9 15.9----30.27- 70.0 68.7----
2024-06-18 09:06 am SW 8.0 14.0----30.27- 69.8 68.7----
2024-06-18 09:00 am SW 8.9 17.1----30.27+0.04 69.6 68.7----
2024-06-18 08:54 am SW 8.9 14.0----30.27- 69.1 68.7----
2024-06-18 08:48 am SW 8.0 14.0----30.27- 69.4 68.7----
2024-06-18 08:42 am SW 8.9 15.9----30.27- 69.3 68.7----
2024-06-18 08:36 am SW 9.9 15.9----30.27- 69.3 68.7----
2024-06-18 08:30 am SW 8.9 15.0----30.27- 69.1 68.7----
2024-06-18 08:24 amSSW 8.0 15.0----30.27- 69.1 68.7----
2024-06-18 08:18 am SW 12.0 18.1----30.27- 68.9 68.7----
2024-06-18 08:12 am SW 8.9 15.9----30.27- 68.5 68.7----
2024-06-18 08:06 am SW 8.0 15.9----30.27- 68.4 68.7----
2024-06-18 08:00 amSSW 7.0 13.0----30.27+0.05 68.5 68.7----
2024-06-18 07:54 am SW 7.0 13.0----30.27- 68.4 68.7----
2024-06-18 07:48 am SW 8.0 13.0----30.27- 68.0 68.7----
2024-06-18 07:42 amSSW 7.0 12.0----30.27- 68.0 68.7----
2024-06-18 07:36 am SW 8.0 13.0----30.27- 67.6 68.7----
2024-06-18 07:30 am SW 7.0 15.9----30.26- 67.6 68.7----
2024-06-18 07:24 am SW 11.1 14.0----30.26- 67.5 68.9----
2024-06-18 07:18 am SW 7.0 15.0----30.26- 67.5 68.9----
2024-06-18 07:12 am SW 6.0 12.0----30.26- 67.1 68.9----
2024-06-18 07:06 amSSW 7.0 15.0----30.26- 67.1 68.9----
2024-06-18 07:00 amSSW 7.0 13.0----30.25+0.05 66.7 68.9----
2024-06-18 06:54 amSSW 6.0 13.0----30.25- 66.6 68.9----
2024-06-18 06:48 am SW 8.0 12.0----30.25- 66.2 68.7----
2024-06-18 06:42 amSSW 6.0 12.0----30.25- 65.8 68.7----
2024-06-18 06:36 amSSW 6.0 11.1----30.25- 65.8 68.7----
2024-06-18 06:30 amSSW 6.0 9.9----30.25- 65.7 68.7----
2024-06-18 06:24 amSSW 7.0 9.9----30.24- 65.5 68.7----
2024-06-18 06:18 amSSW 5.1 9.9----30.24- 65.3 68.7----
2024-06-18 06:12 amSSW 7.0 14.0----30.24- 65.3 68.7----
2024-06-18 06:06 amSSW 6.0 13.0----30.24- 65.3 68.7----
2024-06-18 06:00 amSSW 7.0 9.9----30.24+0.03 65.1 68.7----
2024-06-18 05:54 amSSW 6.0 11.1----30.24- 65.1 68.7----
2024-06-18 05:48 amSSW 5.1 8.9----30.24- 64.9 68.7----
2024-06-18 05:42 amSSW 6.0 9.9----30.23- 64.8 68.9----
2024-06-18 05:36 amSSW 5.1 9.9----30.23- 64.8 68.9----
2024-06-18 05:30 amSSW 6.0 9.9----30.23- 64.6 68.9----
2024-06-18 05:24 amSSW 6.0 9.9----30.23- 64.8 68.9----
2024-06-18 05:18 amSSW 5.1 11.1----30.22- 64.6 68.9----
2024-06-18 05:12 amSSW 7.0 9.9----30.22- 64.4 68.9----
2024-06-18 05:06 amSSW 6.0 9.9----30.22- 64.4 69.1----
2024-06-18 05:00 amSSW 5.1 9.9----30.22+0.01 64.2 69.1----
2024-06-18 04:54 amSSW 5.1 8.9----30.22- 64.2 69.1----
2024-06-18 04:48 amSSW 6.0 9.9----30.22- 64.2 69.1----
2024-06-18 04:42 amSSW 6.0 8.9----30.22- 64.2 69.1----
2024-06-18 04:36 amSSW 7.0 9.9----30.22- 64.4 69.1----
2024-06-18 04:30 amSSW 5.1 9.9----30.22- 64.4 69.1----
2024-06-18 04:24 amSSW 6.0 11.1----30.22- 64.6 69.1----
2024-06-18 04:18 amSSW 6.0 9.9----30.21- 64.6 69.1----
2024-06-18 04:12 amSSW 6.0 8.9----30.21- 64.6 69.1----
2024-06-18 04:06 amSSW 6.0 9.9----30.21- 64.4 69.3----
2024-06-18 04:00 amSSW 5.1 9.9----30.21+0.00 64.4 69.3----
2024-06-18 03:54 amSSW 7.0 9.9----30.21- 64.4 69.3----
2024-06-18 03:48 amSSW 6.0 9.9----30.20- 64.4 69.3----
2024-06-18 03:42 amSSW 5.1 9.9----30.20- 64.4 69.3----
2024-06-18 03:36 amSSW 5.1 11.1----30.20- 64.4 69.3----
2024-06-18 03:30 amSSW 5.1 9.9----30.20- 64.4 69.3----
2024-06-18 03:24 amSSW 6.0 11.1----30.21- 64.6 69.3----
2024-06-18 03:18 amSSW 7.0 11.1----30.21- 64.8 69.3----
2024-06-18 03:12 amSSW 6.0 12.0----30.21- 64.6 69.4----
2024-06-18 03:06 amSSW 6.0 13.0----30.21- 64.9 69.4----
2024-06-18 03:00 amSSW 6.0 9.9----30.21-0.02 64.8 69.4----
2024-06-18 02:54 amSSW 6.0 11.1----30.21- 64.8 69.6----
2024-06-18 02:48 amSSW 6.0 9.9----30.21- 64.6 69.6----
2024-06-18 02:42 amSSW 7.0 11.1----30.20- 64.6 69.6----
2024-06-18 02:36 amSSW 7.0 11.1----30.21- 64.8 69.6----
2024-06-18 02:30 amSSW 5.1 9.9----30.21- 64.8 69.8----
2024-06-18 02:24 amSSW 6.0 11.1----30.21- 64.9 69.8----
2024-06-18 02:18 amSSW 6.0 8.9----30.21- 64.9 69.8----
2024-06-18 02:12 amSSW 6.0 9.9----30.21- 64.9 69.8----
2024-06-18 02:06 amSSW 7.0 11.1----30.21- 64.9 69.8----
2024-06-18 02:00 amSSW 6.0 9.9----30.21+0.00 64.8 69.8----
2024-06-18 01:54 amSSW 5.1 9.9----30.21- 64.9 69.8----
2024-06-18 01:48 amSSW 6.0 8.9----30.21- 64.8 69.8----
2024-06-18 01:42 amSSW 5.1 8.0----30.21- 64.6 69.8----
2024-06-18 01:36 am S 5.1 8.9----30.21- 64.4 69.8----
2024-06-18 01:30 am S 5.1 8.0----30.22- 64.2 69.8----
2024-06-18 01:24 am S 5.1 8.9----30.22- 64.2 69.8----
2024-06-18 01:18 am S 5.1 9.9----30.22- 64.2 69.8----
2024-06-18 01:12 amSSW 7.0 9.9----30.22- 64.2 69.8----
2024-06-18 01:06 amSSW 5.1 8.9----30.22- 64.4 69.8----
2024-06-18 01:00 amSSW 5.1 9.9----30.21-0.01 64.2 70.0----
2024-06-18 12:54 am S 5.1 11.1----30.21- 64.2 70.0----
2024-06-18 12:48 amSSW 4.1 8.9----30.21- 64.4 70.0----
2024-06-18 12:42 amSSW 6.0 8.9----30.21- 64.6 70.0----
2024-06-18 12:36 amSSW 5.1 8.0----30.21- 64.6 70.0----
2024-06-18 12:30 am S 5.1 8.0----30.22- 64.6 70.0----
2024-06-18 12:24 am S 6.0 8.9----30.22- 64.8 70.0----
2024-06-18 12:18 amSSW 6.0 8.0----30.22- 64.6 70.0----
2024-06-18 12:12 am S 5.1 8.9----30.22- 64.8 70.0----
2024-06-18 12:06 amSSW 6.0 8.0----30.22- 64.6 70.0----
2024-06-18 12:00 amSSW 5.1 11.1----30.22+0.01 64.6 70.0----
2024-06-17 11:54 pmSSW 7.0 9.9----30.22- 64.6 70.0----
2024-06-17 11:48 pmSSW 5.1 8.9----30.22- 64.4 70.0----
2024-06-17 11:42 pmSSW 5.1 11.1----30.22- 64.4 70.0----
2024-06-17 11:36 pmSSW 7.0 11.1----30.22- 64.2 70.0----
2024-06-17 11:30 pmSSW 8.0 11.1----30.22- 64.2 70.0----
2024-06-17 11:24 pmSSW 6.0 9.9----30.22- 64.2 70.0----
2024-06-17 11:18 pmSSW 5.1 9.9----30.22- 63.9 70.0----
2024-06-17 11:12 pm S 5.1 11.1----30.22- 64.0 70.0----
2024-06-17 11:06 pmSSW 5.1 9.9----30.22- 63.7 70.0----
2024-06-17 11:00 pm S 6.0 8.9----30.21+0.00 63.7 70.0----
2024-06-17 10:54 pm S 5.1 8.9----30.21- 63.9 70.0----
2024-06-17 10:48 pm S 5.1 8.0----30.21- 63.7 70.0----
2024-06-17 10:42 pm S 4.1 8.0----30.22- 63.7 70.0----
2024-06-17 10:36 pmSSW 5.1 8.0----30.22- 63.5 70.0----
2024-06-17 10:30 pm S 4.1 8.0----30.22- 63.7 70.0----
2024-06-17 10:24 pm S 5.1 8.9----30.22- 63.7 70.0----
2024-06-17 10:18 pmSSW 5.1 9.9----30.22- 63.7 70.0----
2024-06-17 10:12 pmSSW 5.1 8.9----30.22- 63.7 70.0----
2024-06-17 10:06 pm S 5.1 11.1----30.22- 63.7 70.0----
2024-06-17 10:00 pmSSW 4.1 9.9----30.22+0.01 63.9 70.0----
2024-06-17 09:54 pmSSW 6.0 9.9----30.22- 63.9 70.0----
2024-06-17 09:48 pmSSW 5.1 8.0----30.22- 63.9 70.0----
2024-06-17 09:42 pm S 6.0 8.9----30.22- 64.0 70.0----
2024-06-17 09:36 pmSSW 5.1 9.9----30.22- 64.0 70.0----
2024-06-17 09:30 pmSSW 6.0 8.9------ 64.0 70.0----
2024-06-17 09:24 pmSSW 5.1 8.9------ 64.0 70.0----
2024-06-17 09:18 pmSSW 6.0 13.0----30.22- 64.2 70.0----
2024-06-17 09:12 pmSSW 8.0 11.1----30.21- 64.2 70.0----
2024-06-17 09:06 pm S 6.0 8.9----30.21- 64.2 70.0----
2024-06-17 09:00 pm S 6.0 13.0----30.21+0.01 64.2 70.0----
2024-06-17 08:54 pmSSW 6.0 9.9----30.21- 64.2 70.0----
2024-06-17 08:48 pmSSW 6.0 11.1----30.21- 64.0 70.0----
2024-06-17 08:42 pmSSW 8.0 9.9----30.21- 64.0 70.0----
2024-06-17 08:36 pmSSW 7.0 11.1----30.21- 64.0 70.0----
2024-06-17 08:30 pm S 6.0 9.9----30.21- 64.2 70.0----
2024-06-17 08:24 pm S 7.0 12.0----30.21- 64.0 70.0----
2024-06-17 08:18 pmSSW 6.0 9.9----30.21- 64.2 70.0----
2024-06-17 08:12 pmSSW 6.0 11.1----30.21- 64.2 69.8----
2024-06-17 08:06 pm S 7.0 12.0----30.21- 64.2 69.8----
2024-06-17 08:00 pm S 8.0 14.0----30.21+0.00 64.2 69.8----
2024-06-17 07:54 pm S 8.9 13.0----30.21- 64.2 69.8----
2024-06-17 07:48 pmSSW 7.0 14.0----30.21- 64.2 69.8----
2024-06-17 07:42 pm S 7.0 15.0----30.21- 64.2 69.8----
2024-06-17 07:36 pm S 7.0 13.0----30.21- 64.6 69.8----
2024-06-17 07:30 pm S 7.0 12.0----30.21- 64.8 69.8----
2024-06-17 07:24 pm S 8.0 12.0----30.21- 64.9 69.8----
2024-06-17 07:00 pm S 8.9 12.0----30.21-0.01 65.7 69.8----
2024-06-17 06:54 pmSSW 7.0 15.0----30.20- 66.0 69.8----
2024-06-17 06:48 pmSSW 8.9 14.0----30.20- 66.4 69.8----
2024-06-17 06:42 pm S 8.0 13.0----30.20- 66.7 69.8----
2024-06-17 06:36 pmSSW 9.9 15.9----30.20- 66.6 69.8----
2024-06-17 06:30 pm S 8.0 13.0----30.20- 66.7 69.8----
2024-06-17 06:24 pm S 8.0 12.0----30.21- 66.6 69.8----
2024-06-17 06:18 pm S 8.0 13.0----30.20- 66.0 69.8----
2024-06-17 06:12 pm S 8.9 14.0----30.21- 65.7 69.8----
2024-06-17 06:06 pmSSW 8.0 14.0----30.21- 65.8 69.8----
2024-06-17 06:00 pm-------30.20-0.03- 70.0----
2024-06-17 05:54 pm-------30.21-- 70.0----
2024-06-17 05:48 pm S 8.0 18.1----30.20-- 69.8----
2024-06-17 05:42 pmSSW 8.9 15.0----30.20-- 69.8----
2024-06-17 05:36 pm S 8.9 15.9----30.20-- 69.8----
2024-06-17 05:30 pm S 8.9 14.0----30.20- 65.7 69.8----
2024-06-17 05:24 pm S 7.0 14.0----30.21- 65.7 69.8----
2024-06-17 05:18 pm S 8.0 14.0------ 65.8 69.6----
2024-06-17 05:12 pm S 7.0 15.0------ 66.4 69.6----
2024-06-17 05:06 pm S 8.9 13.0------ 66.2 69.6----
2024-06-17 05:00 pmSSW 8.0 15.0----30.21-0.02 66.6 69.6----
2024-06-17 04:54 pm S 8.9 15.9----30.21- 67.1 69.6----
2024-06-17 04:48 pm S 11.1 17.1----30.21- 66.9 69.6----
2024-06-17 04:42 pm S 11.1 15.9----30.21- 66.6 69.6----
2024-06-17 04:36 pm S 8.9 15.0----30.21- 67.1 69.6----
2024-06-17 04:30 pm S 8.9 15.0----30.21- 67.3 69.6----
2024-06-17 04:24 pm S 8.9 18.1----30.22- 67.3 69.4----
2024-06-17 04:18 pm S 11.1 18.1----30.22- 67.1 69.4----
2024-06-17 04:12 pm S 8.9 17.1----30.22- 67.6 69.4----
2024-06-17 04:06 pm S 8.9 15.9----30.22- 67.3 69.4----
2024-06-17 04:00 pm S 9.9 17.1----30.22-0.02 66.9 69.4----
2024-06-17 03:54 pmSSW 8.0 15.9----30.21- 67.8 69.4----
2024-06-17 03:48 pm S 8.9 19.0----30.22- 67.5 69.4----
2024-06-17 03:42 pm S 9.9 15.9----30.22- 67.8 69.4----
2024-06-17 03:36 pm S 9.9 14.0----30.22- 67.5 69.4----
2024-06-17 03:30 pm S 8.9 15.9----30.22- 67.6 69.6----
2024-06-17 03:24 pm S 8.0 14.0----30.23- 67.5 69.6----
2024-06-17 03:18 pmSSW 9.9 17.1----30.22- 67.5 69.6----
2024-06-17 03:12 pm S 7.0 15.0----30.22- 68.2 69.6----
2024-06-17 03:06 pm S 8.9 18.1----30.23- 67.6 69.6----
2024-06-17 03:00 pm S 8.0 13.0----30.23-0.02 68.0 69.6----
2024-06-17 02:54 pmSSW 9.9 15.9----30.23- 67.3 69.6----
2024-06-17 02:48 pm S 9.9 15.0----30.24- 67.5 69.6----
2024-06-17 02:42 pm S 8.9 14.0----30.24- 67.3 69.6----
2024-06-17 02:36 pmSSW 8.0 15.0----30.24- 67.6 69.6----
2024-06-17 02:30 pmSSW 8.0 14.0----30.24- 67.3 69.6----
2024-06-17 02:24 pmSSW 8.9 15.0----30.24- 67.3 69.6----
2024-06-17 02:18 pm S 8.9 18.1----30.23- 67.3 69.6----
2024-06-17 02:12 pm S 9.9 17.1----30.23- 67.3 69.6----
2024-06-17 02:06 pm S 11.1 17.1----30.23- 67.1 69.8----
2024-06-17 02:00 pm S 13.0 17.1----30.23-0.04 66.6 69.8----
2024-06-17 01:54 pm S 12.0 17.1----30.23- 67.5 69.8----
2024-06-17 01:48 pm S 9.9 15.0----30.23- 67.3 69.8----
2024-06-17 01:42 pm S 11.1 17.1----30.23- 66.6 69.8----
2024-06-17 01:36 pm S 9.9 14.0----30.23- 66.9 69.8----
2024-06-17 01:30 pm S 9.9 15.0----30.24- 66.6 69.8----
2024-06-17 01:24 pm S 9.9 15.0----30.24- 66.4 69.8----
2024-06-17 01:18 pm S 9.9 15.0----30.24- 66.4 69.8----
2024-06-17 01:12 pmSSW 9.9 15.9----30.24- 66.2 69.8----
2024-06-17 01:06 pm S 9.9 13.0----30.24- 66.6 69.8----
2024-06-17 01:00 pm S 8.9 15.0----30.24-0.03 66.4 69.8----
2024-06-17 12:54 pm S 8.0 15.0----30.24- 66.6 69.8----
2024-06-17 12:48 pm S 7.0 12.0----30.24- 66.7 69.8----
2024-06-17 12:42 pmSSW 7.0 14.0----30.24- 67.3 69.8----
2024-06-17 12:36 pm S 7.0 12.0----30.24- 67.1 69.8----
2024-06-17 12:30 pmSSW 8.0 12.0----30.24- 66.6 69.8----
2024-06-17 12:24 pm S 8.0 14.0----30.24- 66.7 69.8----
2024-06-17 12:18 pmSSW 8.0 13.0----30.25- 66.2 69.8----
2024-06-17 12:12 pm S 8.0 13.0----30.25- 66.6 69.8----
2024-06-17 12:06 pm S 8.9 14.0----30.25- 65.7 69.6----
2024-06-17 12:00 pm S 8.0 14.0----30.25-0.03 66.2 69.6----
2024-06-17 11:54 am S 8.9 14.0----30.26- 65.8 69.4----
2024-06-17 11:48 am S 9.9 13.0----30.26- 66.0 69.4----
2024-06-17 11:42 am S 6.0 11.1----30.26- 66.4 69.4----
2024-06-17 11:36 amSSW 5.1 12.0----30.27- 66.0 69.4----
2024-06-17 11:30 amSSE 6.0 12.0----30.27-- 69.4----
2024-06-17 11:24 am S 8.0 11.1----30.27-- 69.4----
2024-06-17 11:18 amSSE 7.0 13.0----30.27- 66.0 69.4----
2024-06-17 11:12 am S 7.0 13.0----30.27- 65.8 69.3----
2024-06-17 11:06 amSSW 7.0 12.0----30.27- 65.5 69.3----
2024-06-17 11:00 am S 6.0 12.0----30.27-0.01 65.8 69.3----
2024-06-17 10:54 am S 6.0 12.0----30.27- 65.1 69.3----
2024-06-17 10:48 am S 8.0 12.0----30.27- 65.1 69.3----
2024-06-17 10:42 am S 8.0 12.0----30.27- 65.3 69.3----
2024-06-17 10:36 am S 8.9 12.0----30.27- 64.8 69.3----
2024-06-17 10:30 am S 8.0 11.1----30.27- 65.1 69.3----
2024-06-17 10:24 am S 7.0 12.0----30.27- 64.8 69.3----
2024-06-17 10:18 am S 7.0 9.9----30.27- 65.1 69.1----
2024-06-17 10:12 am S 7.0 12.0----30.27- 64.8 69.1----
2024-06-17 10:06 am S 6.0 8.9----30.27- 65.1 69.1----
2024-06-17 10:00 am S 4.1 11.1----30.27+0.00 65.7 69.1----
2024-06-17 09:54 am S 7.0 11.1----30.27- 65.1 69.1----